Regional Weather Roundup
Issued by NWS

Home | Current Version | Previous Version | Graphics & Text | Print | Product List | Glossary On
Versions: 1 2 3 4 5 6 7 8 9 10 11 12 13 14 15 16 17 18 19 20 21 22 23 24 25 26 27 28 29 30 31 32 33 34 35 36 37 38 39 40 41 42 43 44 45 46 47 48 49 50
000
ASUS43 KLSX 181707
RWRMO

WEATHER SUMMARY FOR MISSOURI
NATIONAL WEATHER SERVICE SPRINGFIELD MO
1200 PM CDT SAT APR 18 2015

NOTE: "FAIR" INDICATES FEW OR NO CLOUDS BELOW 12,000 FEET WITH NO
       SIGNIFICANT WEATHER AND/OR OBSTRUCTIONS TO VISIBILITY.
       CURRENT SKY AND/OR WEATHER CONDITIONS ARE NOT AVAILABLE FOR
       CHILLICOTHE AND FARMINGTON.

MOZ001>031-035>038-043-044-053-054-181800-
...NORTHERN AND WESTERN MISSOURI...

CITY           SKY/WX    TMP DP  RH WIND       PRES   REMARKS
KANSAS CTY INT LGT RAIN  60  59  96 W10       29.93F
KANSAS C DTWN  LGT RAIN  63  58  83 W7        29.93F
LEE`S SUMMIT   LGT RAIN  61  59  93 NW5       29.93F
ST JOSEPH      LGT RAIN  60  58  92 SW12      29.95F FOG
CHILLICOTHE      N/A     69  62  78 SW9       29.94S
KIRKSVILLE     CLOUDY    65  62  90 E9        29.97F

$$
MOZ066>068-077>081-088>096-101>105-181800-
...SOUTHWEST MISSOURI...

CITY           SKY/WX    TMP DP  RH WIND       PRES   REMARKS
SPRINGFIELD    LGT RAIN  63  61  93 SW7       29.98F
JOPLIN         CLOUDY    61  59  93 VRB5      29.99S

$$
MOZ032>034-039>042-045>050-055>058-069>072-181800-
...CENTRAL MISSOURI...

CITY           SKY/WX    TMP DP  RH WIND       PRES   REMARKS
COLUMBIA       PTSUNNY   75  59  57 S16G23    29.96F
JEFFERSON CITY PTSUNNY   74  60  61 SE16      29.95F
ROLLA          CLOUDY    69  58  67 SE12      29.97F
SEDALIA        CLOUDY    69  59  70 W10       29.95F
WHITEMAN AFB   MOSUNNY   64  59  82 NW8       29.93F
WARRENSBURG    CLOUDY    61  57  88 NW5       29.94F
OSAGE BEACH    CLOUDY    70  59  68 S7        29.98S

$$
MOZ051-052-059>065-181800-
...EAST CENTRAL MISSOURI...

CITY           SKY/WX    TMP DP  RH WIND       PRES   REMARKS
ST LOUIS INTL  CLOUDY    73  60  63 SE8       30.01S
SPIRIT OF STL  CLOUDY    71  60  68 SE8       29.98F
ST CHARLES     CLOUDY    73  60  63 S9        29.99F

$$
MOZ072>076-082>087-097>100-106>115-181800-
...SOUTH CENTRAL AND SOUTHEAST MISSOURI...

CITY           SKY/WX    TMP DP  RH WIND       PRES   REMARKS
CAPE GIRARDEAU CLOUDY    74  63  68 SE9       29.99F
FARMINGTON     CLOUDY    72  61  68 S8        30.04F
POPLAR BLUFF   CLOUDY    73  62  68 SE9       29.98F
WEST PLAINS    CLOUDY    67  59  75 SE8       30.01S

$$


USA.gov is the U.S. government's official web portal to all federal, state and local government web resources and services.